Regional Weather Roundup
Issued by NWS

Home | Current Version | Previous Version | Graphics & Text | Print | Product List | Glossary On
Versions: 1 2 3 4 5 6 7 8 9 10 11 12 13 14 15 16 17 18 19 20 21 22 23 24 25 26 27 28 29 30 31 32 33 34 35 36 37 38 39 40 41 42 43 44 45 46 47 48 49 50
000
ASUS45 KABQ 250510
RWRNM
NEW MEXICO REGIONAL WEATHER ROUNDUP
NATIONAL WEATHER SERVICE ALBUQUERQUE NM
1100 PM MDT SUN MAY 24 2015

NOTE: "FAIR" MEANS FEW OR NO CLOUDS BELOW 12,000 FEET AGL WITH NO
       SIGNIFICANT WEATHER OR OBSTRUCTIONS TO VISION.

      THIS PRODUCT IS RELEASED AS TWO VERSIONS.  ONE VERSION NEAR
      THE TOP OF THE HOUR CONTAINING PRELIMINARY DATA FROM ALBUQUERQUE
      AND OTHER STATIONS.  A FINAL VERSION WITH ADDITIONAL DATA IS
      ISSUED ABOUT 10 MINUTES AFTER THE HOUR.

NMZ501-503-504-510>518-250600-
NORTHWEST PLATEAU/NORTHCENTRAL MOUNTAINS

CITY           SKY/WX    TMP DP  RH WIND       PRES   REMARKS
FARMINGTON     CLEAR     50  42  74 SW7       29.96R
LOS ALAMOS     CLOUDY    49  35  57 S8        30.04R
SANTA FE       CLOUDY    51  36  56 SW7       30.01R
TAOS           PTCLDY    39  28  65 SE5       30.02R
ANGEL FIRE     FAIR      37  32  84 CALM      30.06R

$$
NMZ402-403-502-505>509-250600-
WESTCENTRAL MOUNTAINS/SOUTHWEST MOUNTAINS

CITY           SKY/WX    TMP DP  RH WIND       PRES   REMARKS
GALLUP         MOCLDY    47  39  74 SW5       30.06R
GRANTS         CLOUDY    49  39  67 W5        30.07S
SILVER CITY      N/A     59  27  29 NW8       30.04R

$$
NMZ407-409-411-412-250600-
SOUTHERN DESERTS

CITY           SKY/WX    TMP DP  RH WIND       PRES   REMARKS
LORDSBURG      MOCLDY    61  30  31 W8        30.00R
DEMING         CLOUDY    65  31  28 W17G26    29.96R
LAS CRUCES     MOCLDY    67  26  21 W16G23    29.94R
HOLLOMAN AFB   MOCLDY    66  29  24 CALM      29.88R
ALAMOGORDO     PTCLDY    64  21  19 CALM      29.90R
T OR C         PTCLDY    62  34  35 NW16G24   29.95R

$$
NMZ519>523-250600-
CENTRAL VALLEYS/CENTRAL HIGHLANDS

CITY           SKY/WX    TMP DP  RH WIND       PRES   REMARKS
ALBUQUERQUE    LGT RAIN  55  42  61 W14G22    30.02R
DOUBLE EAGLE   RAIN      48  45  88 CALM      30.04R
MORIARTY ARPT  CLOUDY    50  39  66 SW16      30.04S
CLINES CORNERS CLOUDY    50  35  56 W25G40    30.01S
BELEN          LGT RAIN  57  42  55 W13       30.01R
SOCORRO        CLOUDY    62  34  35 N17G23    29.98R

$$
NMZ524>526-539-540-250600-
SOUTHCENTRAL MOUNTAINS

CITY           SKY/WX    TMP DP  RH WIND       PRES   REMARKS
RUIDOSO        PTCLDY    55  19  24 SW12G18   30.03S

$$
NMZ527>531-250600-
NORTHEAST HIGHLANDS/NORTHEAST PLAINS

CITY           SKY/WX    TMP DP  RH WIND       PRES   REMARKS
LAS VEGAS      MOCLDY    49  35  58 W13       30.00R
RATON          PTCLDY    48  34  58 NW6       29.92R
CLAYTON        CLEAR     51  43  74 SW6       29.87R

$$
NMZ532>537-250600-
EASTCENTRAL PLAINS

CITY           SKY/WX    TMP DP  RH WIND       PRES   REMARKS
TUCUMCARI      PTCLDY    57  46  66 SW8       29.84R
CANNON AFB     PTCLDY    57  44  61 S7        29.85S
CLOVIS AIRPORT PTCLDY    57  43  58 S6        29.84S

$$
NMZ028-029-538-250600-
SOUTHEAST PLAINS

CITY           SKY/WX    TMP DP  RH WIND       PRES   REMARKS
ROSWELL        MOCLDY    68  29  23 SW10      29.83R
ARTESIA        CLOUDY    66  27  22 SW12      29.86S
CARLSBAD       PTCLDY    61  34  36 SW10      29.84R
HOBBS          CLEAR     57  37  47 SW8       29.88S


$$


USA.gov is the U.S. government's official web portal to all federal, state and local government web resources and services.